TimeAKDT,TemperatureF,Dew PointF,Humidity,Sea Level PressureIn,VisibilityMPH,Wind Direction,Wind SpeedMPH,Gust SpeedMPH,PrecipitationIn,Events,Conditions,WindDirDegrees,DateUTC
12:53 AM,39.0,36.0,89,29.71,10.0,Calm,Calm,-,N/A,,Overcast,0,2012-11-01 08:53:00
1:53 AM,37.9,36.0,93,29.72,10.0,Calm,Calm,-,N/A,,Overcast,0,2012-11-01 09:53:00
2:53 AM,37.0,36.0,96,29.72,10.0,Calm,Calm,-,N/A,,Overcast,0,2012-11-01 10:53:00
3:53 AM,37.9,37.0,97,29.73,10.0,Calm,Calm,-,N/A,,Scattered Clouds,0,2012-11-01 11:53:00
4:53 AM,35.6,35.6,100,29.74,10.0,Calm,Calm,-,N/A,,Overcast,0,2012-11-01 12:53:00
5:53 AM,37.0,36.0,96,29.73,10.0,Calm,Calm,-,N/A,,Overcast,0,2012-11-01 13:53:00
6:53 AM,37.0,36.0,96,29.73,10.0,Calm,Calm,-,N/A,,Overcast,0,2012-11-01 14:53:00
7:53 AM,37.9,37.0,97,29.73,10.0,Calm,Calm,-,N/A,,Overcast,0,2012-11-01 15:53:00
8:53 AM,39.0,37.0,93,29.74,10.0,Calm,Calm,-,N/A,,Overcast,0,2012-11-01 16:53:00
9:53 AM,39.9,37.9,93,29.76,10.0,NNW,5.8,-,N/A,,Overcast,330,2012-11-01 17:53:00
10:53 AM,41.0,37.9,89,29.77,10.0,Calm,Calm,-,N/A,,Overcast,0,2012-11-01 18:53:00
11:53 AM,43.0,37.9,82,29.75,10.0,NNW,5.8,-,N/A,,Mostly Cloudy,330,2012-11-01 19:53:00
12:53 PM,44.1,37.9,79,29.74,10.0,NNW,9.2,-,N/A,,Mostly Cloudy,330,2012-11-01 20:53:00
1:53 PM,46.4,35.6,66,29.72,10.0,Calm,Calm,-,N/A,,Clear,0,2012-11-01 21:53:00
2:53 PM,46.9,30.9,54,29.70,10.0,East,15.0,19.6,N/A,,Clear,100,2012-11-01 22:53:00
3:08 PM,46.4,30.2,53,29.69,10.0,ESE,15.0,-,N/A,,Clear,120,2012-11-01 23:08:00
3:53 PM,46.9,28.0,48,29.67,10.0,ESE,13.8,-,N/A,,Clear,120,2012-11-01 23:53:00
4:53 PM,46.0,19.0,34,29.64,10.0,East,10.4,16.1,N/A,,Clear,100,2012-11-02 00:53:00
5:53 PM,46.0,18.0,33,29.63,10.0,ESE,17.3,25.3,N/A,,Clear,120,2012-11-02 01:53:00
6:53 PM,46.0,19.9,35,29.62,10.0,ESE,18.4,26.5,N/A,,Clear,120,2012-11-02 02:53:00
7:53 PM,46.0,19.0,34,29.61,10.0,ESE,17.3,24.2,N/A,,Clear,120,2012-11-02 03:53:00
8:53 PM,46.0,23.0,40,29.61,10.0,East,15.0,20.7,N/A,,Clear,90,2012-11-02 04:53:00
9:53 PM,46.9,27.0,46,29.60,10.0,ESE,15.0,-,N/A,,Clear,120,2012-11-02 05:53:00
10:53 PM,48.0,27.0,44,29.58,10.0,ESE,18.4,26.5,N/A,,Mostly Cloudy,110,2012-11-02 06:53:00
11:53 PM,48.0,30.9,52,29.57,10.0,ESE,17.3,23.0,N/A,,Mostly Cloudy,110,2012-11-02 07:53:00